| time (UTC) | temp F | wind direction | speed MPH | gust MPH | rain 1hr in | rain 24hr in | rain mn in | humidity % | barometer mb |
| 20260902180124 | 92 | 270 | 7.0 | 12.0 | 0.00 | 0.00 | 0.00 | 25 | 1020.4 |
| 20260902174655 | 92 | 111 | 4.0 | 8.0 | 0.00 | 0.00 | 0.00 | 25 | 1020.6 |
| 20260902173125 | 91 | 217 | 5.0 | 9.0 | 0.00 | 0.00 | 0.00 | 26 | 1020.9 |
| 20260902171640 | 91 | 187 | 3.0 | 10.0 | 0.00 | 0.00 | 0.00 | 26 | 1021.0 |
| 20260902170151 | 90 | 256 | 4.0 | 8.0 | 0.00 | 0.00 | 0.00 | 25 | 1021.1 |
| 20260902164626 | 89 | 184 | 3.0 | 9.0 | 0.00 | 0.00 | 0.00 | 26 | 1021.0 |
| 20260902163138 | 88 | 147 | 4.0 | 8.0 | 0.00 | 0.00 | 0.00 | 27 | 1021.1 |
| 20260902161650 | 88 | 208 | 5.0 | 8.0 | 0.00 | 0.00 | 0.00 | 28 | 1021.0 |
| 20260902160146 | 87 | 142 | 3.0 | 8.0 | 0.00 | 0.00 | 0.00 | 29 | 1021.0 |
| 20260902154636 | 86 | 172 | 2.0 | 8.0 | 0.00 | 0.00 | 0.00 | 31 | 1021.0 |
| 20260902153131 | 85 | 158 | 4.0 | 8.0 | 0.00 | 0.00 | 0.00 | 31 | 1020.7 |
| 20260902151622 | 84 | 149 | 4.0 | 9.0 | 0.00 | 0.00 | 0.00 | 32 | 1020.8 |
| 20260902150134 | 83 | 143 | 0.0 | 0.0 | 0.00 | 0.00 | 0.00 | 34 | 1020.7 |
| 20260902144650 | 83 | 130 | 3.0 | 8.0 | 0.00 | 0.00 | 0.00 | 35 | 1020.7 |
| 20260902143122 | 81 | 201 | 2.0 | 4.0 | 0.00 | 0.00 | 0.00 | 39 | 1020.6 |
| 20260902141657 | 78 | 142 | 2.0 | 5.0 | 0.00 | 0.00 | 0.00 | 41 | 1020.4 |
| 20260902140128 | 76 | 129 | 0.0 | 1.0 | 0.00 | 0.00 | 0.00 | 46 | 1020.3 |
| 20260902134629 | 74 | 138 | 0.0 | 1.0 | 0.00 | 0.00 | 0.00 | 47 | 1020.2 |
| 20260902133124 | 72 | 120 | 0.0 | 1.0 | 0.00 | 0.00 | 0.00 | 48 | 1020.0 |
| 20260902131636 | 70 | 142 | 0.0 | 0.0 | 0.00 | 0.00 | 0.00 | 50 | 1019.9 |
| 20260902130132 | 69 | 131 | 0.0 | 1.0 | 0.00 | 0.00 | 0.00 | 50 | 1019.7 |
| 20260902124623 | 67 | 118 | 0.0 | 0.0 | 0.00 | 0.00 | 0.00 | 53 | 1019.7 |
| 20260902123139 | 67 | 103 | 0.0 | 0.0 | 0.00 | 0.00 | 0.00 | 55 | 1019.7 |
| 20260902121631 | 67 | 130 | 0.0 | 0.0 | 0.00 | 0.00 | 0.00 | 55 | 1019.5 |
| 20260902120123 | 68 | 109 | 0.0 | 0.0 | 0.00 | 0.00 | 0.00 | 54 | 1019.4 |
| 20260902114638 | 69 | 158 | 0.0 | 0.0 | 0.00 | 0.00 | 0.00 | 52 | 1019.3 |
| 20260902113131 | 69 | 91 | 0.0 | 1.0 | 0.00 | 0.00 | 0.00 | 52 | 1019.3 |
| 20260902111626 | 71 | 172 | 0.0 | 2.0 | 0.00 | 0.00 | 0.00 | 49 | 1019.1 |
| 20260902110139 | 72 | 147 | 2.0 | 3.0 | 0.00 | 0.00 | 0.00 | 47 | 1019.1 |
| 20260902104635 | 72 | 151 | 1.0 | 4.0 | 0.00 | 0.00 | 0.00 | 46 | 1019.1 |
| 20260902103127 | 73 | 137 | 2.0 | 4.0 | 0.00 | 0.00 | 0.00 | 46 | 1019.0 |
| 20260902101623 | 71 | 121 | 2.0 | 5.0 | 0.00 | 0.00 | 0.00 | 48 | 1019.1 |
| 20260902100136 | 69 | 123 | 0.0 | 1.0 | 0.00 | 0.00 | 0.00 | 53 | 1019.1 |
| 20260902094627 | 68 | 99 | 0.0 | 1.0 | 0.00 | 0.00 | 0.00 | 55 | 1019.1 |
| 20260902093123 | 68 | 94 | 0.0 | 1.0 | 0.00 | 0.00 | 0.00 | 54 | 1019.1 |
| 20260902091634 | 68 | 80 | 0.0 | 2.0 | 0.00 | 0.00 | 0.00 | 54 | 1019.2 |
| 20260902090151 | 68 | 161 | 0.0 | 0.0 | 0.00 | 0.00 | 0.00 | 54 | 1019.3 |
| 20260902084621 | 69 | 272 | 0.0 | 0.0 | 0.00 | 0.00 | 0.00 | 54 | 1019.1 |
| 20260902083154 | 68 | 272 | 0.0 | 1.0 | 0.00 | 0.00 | 0.00 | 55 | 1019.2 |
| 20260902081628 | 69 | 274 | 0.0 | 1.0 | 0.00 | 0.00 | 0.00 | 53 | 1019.2 |
| 20260902080201 | 71 | 157 | 0.0 | 0.0 | 0.00 | 0.00 | 0.00 | 50 | 1019.3 |
| 20260902074635 | 71 | 237 | 0.0 | 1.0 | 0.00 | 0.00 | 0.00 | 49 | 1019.2 |
| 20260902073127 | 72 | 232 | 0.0 | 0.0 | 0.00 | 0.00 | 0.00 | 48 | 1019.2 |
| 20260902071639 | 72 | 232 | 0.0 | 0.0 | 0.00 | 0.00 | 0.00 | 48 | 1019.4 |
| 20260902070136 | 72 | 257 | 0.0 | 0.0 | 0.00 | 0.00 | 0.00 | 48 | 1019.3 |
| 20260902064627 | 74 | 249 | 0.0 | 1.0 | 0.00 | 0.00 | 0.00 | 45 | 1019.2 |
| 20260902063122 | 75 | 123 | 0.0 | 1.0 | 0.00 | 0.00 | 0.00 | 43 | 1019.2 |
| 20260902061634 | 75 | 131 | 0.0 | 1.0 | 0.00 | 0.00 | 0.00 | 43 | 1019.2 |
| 20260902060148 | 77 | 144 | 0.0 | 1.0 | 0.00 | 0.00 | 0.00 | 41 | 1019.2 |
| 20260902054622 | 77 | 147 | 0.0 | 3.0 | 0.00 | 0.00 | 0.00 | 41 | 1019.1 |
| 20260902053133 | 76 | 110 | 1.0 | 3.0 | 0.00 | 0.00 | 0.00 | 43 | 1019.3 |
| 20260902051628 | 76 | 208 | 0.0 | 2.0 | 0.00 | 0.00 | 0.00 | 43 | 1019.6 |
| 20260902050201 | 76 | 212 | 0.0 | 2.0 | 0.00 | 0.00 | 0.00 | 42 | 1019.6 |
| 20260902044635 | 76 | 218 | 0.0 | 2.0 | 0.00 | 0.01 | 0.00 | 42 | 1019.6 |
| 20260902043148 | 77 | 219 | 0.0 | 0.0 | 0.00 | 0.01 | 0.00 | 40 | 1019.5 |
| 20260902041658 | 77 | 244 | 0.0 | 0.0 | 0.00 | 0.01 | 0.00 | 40 | 1019.5 |
| 20260902040135 | 78 | 242 | 0.0 | 3.0 | 0.00 | 0.01 | 0.00 | 39 | 1019.3 |
| 20260902034625 | 80 | 106 | 0.0 | 1.0 | 0.00 | 0.02 | 0.00 | 36 | 1018.9 |
| 20260902033135 | 80 | 140 | 0.0 | 4.0 | 0.00 | 0.02 | 0.00 | 35 | 1018.8 |
| 20260902031648 | 79 | 128 | 1.0 | 3.0 | 0.00 | 0.02 | 0.00 | 37 | 1018.5 |
| 20260902030138 | 80 | 23 | 0.0 | 0.0 | 0.00 | 0.02 | 0.00 | 35 | 1018.0 |
| 20260902024648 | 81 | 23 | 0.0 | 1.0 | 0.00 | 0.02 | 0.00 | 33 | 1017.9 |
| 20260902023143 | 80 | 28 | 1.0 | 2.0 | 0.00 | 0.02 | 0.00 | 35 | 1017.8 |
| 20260902021633 | 81 | 285 | 0.0 | 1.0 | 0.00 | 0.02 | 0.00 | 34 | 1017.5 |
| 20260902020148 | 82 | 280 | 0.0 | 2.0 | 0.00 | 0.02 | 0.00 | 33 | 1017.3 |
| 20260902014640 | 84 | 79 | 0.0 | 0.0 | 0.00 | 0.02 | 0.00 | 31 | 1017.0 |
| 20260902013131 | 87 | 79 | 0.0 | 0.0 | 0.00 | 0.02 | 0.00 | 28 | 1016.8 |
| 20260902011624 | 88 | 78 | 0.0 | 0.0 | 0.00 | 0.02 | 0.00 | 26 | 1016.7 |
| 20260902010135 | 88 | 75 | 0.0 | 0.0 | 0.00 | 0.02 | 0.00 | 26 | 1016.8 |
| 20260902004630 | 89 | 72 | 0.0 | 2.0 | 0.00 | 0.02 | 0.00 | 25 | 1016.8 |
| 20260902003141 | 89 | 64 | 1.0 | 3.0 | 0.00 | 0.02 | 0.00 | 24 | 1016.8 |
| 20260902001651 | 90 | 99 | 2.0 | 3.0 | 0.00 | 0.02 | 0.00 | 24 | 1016.9 |
| 20260902000144 | 91 | 19 | 1.0 | 4.0 | 0.00 | 0.02 | 0.00 | 23 | 1017.0 |
| 20260901234634 | 92 | 274 | 0.0 | 3.0 | 0.00 | 0.02 | 0.00 | 23 | 1017.0 |
| 20260901233123 | 92 | 160 | 0.0 | 2.0 | 0.00 | 0.02 | 0.00 | 23 | 1016.9 |
| 20260901231639 | 92 | 261 | 1.0 | 2.0 | 0.00 | 0.02 | 0.00 | 23 | 1016.9 |
| 20260901230129 | 91 | 326 | 1.0 | 5.0 | 0.00 | 0.02 | 0.00 | 23 | 1017.0 |
| 20260901224643 | 92 | 309 | 2.0 | 6.0 | 0.00 | 0.02 | 0.00 | 22 | 1017.1 |
| 20260901223133 | 92 | 336 | 1.0 | 5.0 | 0.00 | 0.02 | 0.00 | 23 | 1017.4 |
| 20260901221622 | 92 | 102 | 0.0 | 8.0 | 0.00 | 0.02 | 0.00 | 22 | 1017.5 |
| 20260901220135 | 92 | 319 | 4.0 | 7.0 | 0.00 | 0.02 | 0.00 | 22 | 1017.5 |
| 20260901214626 | 92 | 35 | 5.0 | 10.0 | 0.00 | 0.02 | 0.00 | 23 | 1017.8 |
| 20260901213136 | 92 | 4 | 2.0 | 4.0 | 0.00 | 0.02 | 0.00 | 24 | 1017.9 |
| 20260901211630 | 91 | 352 | 2.0 | 7.0 | 0.00 | 0.02 | 0.00 | 24 | 1018.2 |
| 20260901210142 | 91 | 317 | 1.0 | 8.0 | 0.00 | 0.02 | 0.00 | 24 | 1018.5 |
| 20260901204630 | 91 | 329 | 4.0 | 7.0 | 0.00 | 0.02 | 0.00 | 25 | 1018.6 |
| 20260901203146 | 90 | 293 | 2.0 | 11.0 | 0.00 | 0.02 | 0.00 | 25 | 1018.9 |
| 20260901201635 | 90 | 231 | 5.0 | 10.0 | 0.00 | 0.02 | 0.00 | 25 | 1019.1 |
| 20260901200151 | 90 | 289 | 5.0 | 12.0 | 0.00 | 0.02 | 0.00 | 27 | 1019.4 |
| 20260901194642 | 90 | 256 | 4.0 | 12.0 | 0.00 | 0.02 | 0.00 | 26 | 1019.6 |
| 20260901193132 | 89 | 279 | 1.0 | 9.0 | 0.00 | 0.02 | 0.00 | 27 | 1019.7 |
| 20260901191627 | 88 | 162 | 0.0 | 6.0 | 0.00 | 0.02 | 0.00 | 28 | 1020.1 |
| 20260901190136 | 86 | 310 | 5.0 | 10.0 | 0.00 | 0.02 | 0.00 | 31 | 1020.2 |
| 20260901184627 | 87 | 290 | 5.0 | 9.0 | 0.00 | 0.02 | 0.00 | 31 | 1020.3 |
| 20260901183123 | 87 | 239 | 0.0 | 8.0 | 0.00 | 0.02 | 0.00 | 33 | 1020.4 |
| 20260901181635 | 86 | 256 | 3.0 | 7.0 | 0.00 | 0.02 | 0.00 | 35 | 1020.8 |